IBE07RZ LEMD-EGLL

Flight info

Callsign IBE07RZ
Flight time N/A
Altitude 36000
Route SIE N865 DELOG DCT DEGEX DCT JSY DCT REVTU UP87 ROXOG
Aircraft A359/H-SDE2E3GHIJ1J3J4J5LM1ORWXY/LB1D1

Departure

Time 2026-04-30 22:50
Airport Adolfo Suárez Madrid–Barajas Airport (LEMD)

Arrival

Time N/A
Airport London Heathrow Airport (EGLL)
Time Latitude Longitude Altitude Speed Heading
2026-04-30 22:03 40.49356 -3.56871 1978 ft 0 kts 90°
2026-04-30 22:23 40.49355 -3.56867 1978 ft 0 kts 89°
2026-04-30 22:43 40.49355 -3.56921 1979 ft 4 kts 89°
2026-04-30 22:44 40.49357 -3.56984 1982 ft 5 kts 123°
2026-04-30 22:45 40.49418 -3.57003 1981 ft 4 kts 180°
2026-04-30 22:47 40.49283 -3.57069 1990 ft 16 kts 271°
2026-04-30 22:47 40.49171 -3.57363 1993 ft 22 kts 275°
2026-04-30 22:48 40.49289 -3.57454 1991 ft 0 kts
2026-04-30 22:49 40.49414 -3.57453 1990 ft 48 kts 360°
2026-04-30 22:50 40.54464 -3.57503 4169 ft 243 kts 359°
2026-04-30 22:51 40.57644 -3.59202 5262 ft 258 kts 309°
2026-04-30 22:51 40.59994 -3.62590 6884 ft 260 kts 322°
2026-04-30 22:52 40.61712 -3.63550 7218 ft 279 kts 351°
2026-04-30 22:52 40.65652 -3.63532 8545 ft 287 kts
2026-04-30 22:53 40.69690 -3.63267 9971 ft 293 kts
2026-04-30 22:53 40.73921 -3.63000 10755 ft 321 kts
2026-04-30 22:53 40.76208 -3.62861 11009 ft 337 kts
2026-04-30 22:54 40.80995 -3.62568 11994 ft 350 kts
2026-04-30 22:55 40.88412 -3.62115 13698 ft 361 kts
2026-04-30 22:55 40.93443 -3.61806 14706 ft 368 kts
2026-04-30 22:56 40.98626 -3.61487 15742 ft 374 kts
2026-04-30 22:56 41.06481 -3.61004 17276 ft 383 kts
2026-04-30 22:57 41.11838 -3.60675 18329 ft 388 kts
2026-04-30 22:57 41.17274 -3.60372 19188 ft 394 kts 359°
2026-04-30 22:58 41.22784 -3.60488 20055 ft 398 kts 356°
2026-04-30 22:59 41.31183 -3.60851 21352 ft 407 kts 357°
2026-04-30 22:59 41.39748 -3.61099 22614 ft 414 kts 358°